Port Hedland, Western Australia

4:54 AM AWST on February 13, 2016 (GMT +0800)
Port Hedland International

Weather History for YPPD - April, 2013

Change the Weather History Date:

Saturday, April 20, 2013

  Actual Average Record
Temperature  
Mean Temperature 88 °F -  
Max Temperature 106 °F 90 °F 106 °F (2013)
Min Temperature 70 °F 65 °F 60 °F (1999)
Cooling Degree Days 23    
Growing Degree Days 38 (Base 50)    
Moisture  
Dew Point 66 °F    
Average Humidity 72    
Maximum Humidity 100    
Minimum Humidity 8    
Precipitation  
Precipitation 0.00 in 0.03 in - ()
Sea Level Pressure  
Sea Level Pressure 29.84 in    
Wind  
Wind Speed 8 mph ()    
Max Wind Speed 20 mph    
Max Gust Speed -    
Visibility 6.2 miles    
Events      
Averages and records for this station are not official NWS values.
T = Trace of Precipitation, MM = Missing Value Source: Averaged Metar Reports

Daily Weather History Graph

Daily Weather History Graph

Search for Another Location

Airport or City:

Trip Planner

Search our weather history database for the weather conditions in past years. The results will help you decide how hot, cold, wet, or windy it might be!

Date:

Astronomy

Apr. 20, 2013 Rise Set
Actual Time 6:18 AM AWST 5:50 PM AWST
Civil Twilight 5:55 AM AWST 6:12 PM AWST
Nautical Twilight 5:29 AM AWST 6:38 PM AWST
Astronomical Twilight 5:03 AM AWST 7:04 PM AWST
Moon 1:48 PM AWST (4/20) 12:50 AM AWST (4/20)
Length of Visible Light 12h 17m
Length of Day
11h 32m
Waxing Gibbous, 66% of the Moon is Illuminated
Apr 20
Waxing Gibbous
Apr 26
Full
May 2
Last Quarter
May 10
New
May 18
First Quarter

Hourly Weather History & Observations

Time (AWST) Temp. Heat Index Dew Point Humidity Pressure Visibility Wind Dir Wind Speed Gust Speed Precip Events Conditions
12:00 AM 77 °F - 73 °F 85% 29.88 in - SSW 5.8 mph - -  
12:00 AM 77.0 °F - 73.4 °F 89% 29.86 in 6.2 mi SSW 5.8 mph - N/A   Unknown
12:30 AM 77.0 °F - 73.4 °F 89% 29.86 in 6.2 mi NNE 2.3 mph - N/A   Unknown
1:00 AM 75.2 °F - 73.4 °F 94% 29.86 in 6.2 mi West 3.5 mph - N/A   Unknown
1:30 AM 75.2 °F - 73.4 °F 94% 29.86 in 6.2 mi Calm Calm - N/A   Unknown
2:00 AM 74 °F - 71 °F 86% 29.86 in - West 6.9 mph - -  
2:00 AM 73.4 °F - 69.8 °F 88% 29.86 in 6.2 mi West 6.9 mph - N/A   Unknown
2:30 AM 75.2 °F - 71.6 °F 89% 29.83 in 6.2 mi South 3.5 mph - N/A   Unknown
3:00 AM 72 °F - 69 °F 88% 29.85 in - West 8.1 mph - -  
3:00 AM 71.6 °F - 69.8 °F 94% 29.83 in 6.2 mi West 8.1 mph - N/A   Unknown
3:30 AM 73.4 °F - 68.0 °F 83% 29.83 in 6.2 mi SSW 6.9 mph - N/A   Unknown
4:00 AM 71.6 °F - 68.0 °F 88% 29.83 in 6.2 mi SSW 6.9 mph - N/A   Unknown
4:30 AM 71.6 °F - 66.2 °F 83% 29.83 in 6.2 mi WSW 8.1 mph - N/A   Unknown
5:00 AM 72 °F - 65 °F 72% 29.86 in - South 8.1 mph - -  
5:00 AM 73.4 °F - 64.4 °F 73% 29.86 in 6.2 mi South 8.1 mph - N/A   Unknown
5:30 AM 73.4 °F - 64.4 °F 73% 29.86 in 6.2 mi SW 8.1 mph - N/A   Unknown
6:00 AM 73 °F - 60 °F 55% 29.87 in - SW 9.2 mph - -  
6:00 AM 73.4 °F - 60.8 °F 65% 29.86 in 6.2 mi SW 9.2 mph - N/A   Unknown
6:30 AM 73.4 °F - 57.2 °F 57% 29.86 in 6.2 mi SSW 10.4 mph - N/A   Unknown
7:00 AM 77.0 °F - 57.2 °F 50% 29.89 in 6.2 mi SSW 9.2 mph - N/A   Unknown
7:30 AM 80.6 °F 80.3 °F 53.6 °F 39% 29.89 in 6.2 mi SSW 12.7 mph - N/A   Unknown
8:00 AM 85 °F - 52 °F 22% 29.90 in - SSW 15.0 mph - -  
8:00 AM 86.0 °F - 51.8 °F 31% 29.89 in 6.2 mi SSW 15.0 mph - N/A   Unknown
8:30 AM 89.6 °F - 50.0 °F 26% 29.89 in 6.2 mi South 15.0 mph - N/A   Unknown
9:00 AM 94 °F - 51 °F 14% 29.91 in - South 17.3 mph - -  
9:00 AM 95.0 °F - 51.8 °F 23% 29.89 in 6.2 mi South 17.3 mph - N/A   Unknown
9:30 AM 98.6 °F - 48.2 °F 18% 29.89 in 6.2 mi South 19.6 mph - N/A   Unknown
10:00 AM 98.6 °F - 46.4 °F 17% 29.89 in 6.2 mi South 19.6 mph - N/A   Unknown
10:30 AM 100.4 °F - 48.2 °F 17% 29.89 in 6.2 mi SSE 15.0 mph - N/A   Unknown
11:00 AM 102 °F - 47 °F 9% 29.89 in - South 12.7 mph - -  
11:00 AM 102.2 °F - 46.4 °F 15% 29.89 in 6.2 mi South 12.7 mph - N/A   Unknown
11:30 AM 102.2 °F - 48.2 °F 16% 29.86 in 6.2 mi South 11.5 mph - N/A   Unknown
12:00 PM 104 °F - 46 °F 8% 29.85 in - South 8.1 mph - -  
12:00 PM 104.0 °F - 46.4 °F 14% 29.83 in 6.2 mi South 8.1 mph - N/A   Unknown
12:30 PM 104.0 °F - 48.2 °F 15% 29.83 in 6.2 mi South 11.5 mph - N/A   Unknown
1:00 PM 104.0 °F 103.4 °F 57.2 °F 21% 29.80 in 6.2 mi West 8.1 mph - N/A   Unknown
1:30 PM 105.8 °F 129.8 °F 80.6 °F 45% 29.80 in 6.2 mi NNW 8.1 mph - N/A   Unknown
2:00 PM 105 °F - 102 °F 88% 29.80 in - NW 4.6 mph - -  
2:00 PM 105.8 °F 214.9 °F 102.2 °F 90% 29.80 in 6.2 mi NW 4.6 mph - N/A   Unknown
2:17 PM 104.0 °F 226.2 °F 104.0 °F 100% 29.77 in 6.2 mi NNW 17.3 mph - N/A   Unknown
2:30 PM 104.0 °F 226.2 °F 104.0 °F 100% 29.77 in 6.2 mi NNW 16.1 mph - N/A   Unknown
3:00 PM 103 °F - 103 °F 100% 29.79 in - NNW 15.0 mph - -  
3:00 PM 104.0 °F 226.2 °F 104.0 °F 100% 29.77 in 6.2 mi NNW 15.0 mph - N/A   Unknown
3:30 PM 102.2 °F 211.9 °F 102.2 °F 100% 29.77 in 6.2 mi NW 15.0 mph - N/A   Unknown
4:00 PM 100.4 °F 198.3 °F 100.4 °F 100% 29.77 in 6.2 mi NW 17.3 mph - N/A   Unknown
4:30 PM 100.4 °F 188.0 °F 98.6 °F 95% 29.80 in 6.2 mi WNW 15.0 mph - N/A   Unknown
5:00 PM 98 °F - 98 °F 100% 29.80 in - WNW 16.1 mph - -  
5:00 PM 98.6 °F 185.2 °F 98.6 °F 100% 29.80 in 6.2 mi WNW 16.1 mph - N/A   Unknown
5:30 PM 95.0 °F 161.1 °F 95.0 °F 100% 29.80 in 6.2 mi WNW 11.5 mph - N/A   Unknown
6:00 PM 92 °F - 92 °F 99% 29.82 in - WNW 10.4 mph - -  
6:00 PM 91.4 °F 139.4 °F 91.4 °F 100% 29.80 in 6.2 mi WNW 10.4 mph - N/A   Unknown
6:30 PM 89.6 °F 129.5 °F 89.6 °F 100% 29.83 in 6.2 mi WNW 9.2 mph - N/A   Unknown
7:00 PM 87.8 °F 120.2 °F 87.8 °F 100% 29.83 in 6.2 mi West 9.2 mph - N/A   Unknown
7:30 PM 86.0 °F 111.5 °F 86.0 °F 100% 29.83 in 6.2 mi WNW 9.2 mph - N/A   Unknown
8:00 PM 83 °F - 83 °F 100% 29.84 in - WNW 9.2 mph - -  
8:00 PM 84.2 °F 103.5 °F 84.2 °F 100% 29.83 in 6.2 mi WNW 9.2 mph - N/A   Unknown
8:30 PM 84.2 °F 103.5 °F 84.2 °F 100% 29.83 in 6.2 mi West 10.4 mph - N/A   Unknown
9:00 PM 84 °F - 84 °F 99% 29.85 in - West 9.2 mph - -  
9:00 PM 84.2 °F 103.5 °F 84.2 °F 100% 29.83 in 6.2 mi West 9.2 mph - N/A   Unknown
9:30 PM 80.6 °F 89.3 °F 80.6 °F 100% 29.86 in 6.2 mi West 9.2 mph - N/A   Unknown
10:00 PM 78.8 °F - 78.8 °F 100% 29.83 in 6.2 mi West 6.9 mph - N/A   Unknown
10:30 PM 78.8 °F - 78.8 °F 100% 29.83 in 6.2 mi West 8.1 mph - N/A   Unknown
11:00 PM 79 °F - 79 °F 99% 29.85 in - WNW 5.8 mph - -  
11:00 PM 78.8 °F - 78.8 °F 100% 29.83 in 6.2 mi WNW 5.8 mph - N/A   Unknown
11:30 PM 78.8 °F - 77.0 °F 94% 29.83 in 6.2 mi West 5.8 mph - N/A   Unknown